Location: Franzen
(48.6167°N, 15.3833°E)
Time: 21:34:13
(UTC+00:00)

Cosmos 1709 Rocket - Pass Details

Date: 30 July 2021
Orbit: 947 x 1002 km, 82.9° (Epoch: 22 September)

Event Time Altitude Azimuth Distance (km) Brightness Sun altitude
Exits shadow 22:40:34 33° 127° (SE) 1,603 4.8 -22.9°
Maximum altitude 22:42:31 42° 88° (E) 1,400 4.7 -22.9°
Drops below altitude 10° 22:48:26 10° 21° (NNE) 2,784 7.3 -23.0°
Sets 22:51:06 0° 15° (NNE) 3,741 8.3 -23.0°
